Location: Dehesa de la Cepeda
(40.6574°N, 4.3013°W)
Time: 20:10:48
(UTC+00:00)

Vanguard 2 Rocket - Pass Details

Date: 13 August 2021
Orbit: 556 x 3324 km, 32.9° (Epoch: 19 September)

Event Time Altitude Azimuth Distance (km) Brightness Sun altitude
Rises 02:36:08 0° 227° (SW) 6,117 - -26.6°
Reaches altitude 10° 02:41:21 10° 219° (SW) 4,623 - -26.0°
Exits shadow 02:49:48 30° 178° (S) 2,503 8.7 -25.0°
Maximum altitude 02:51:03 31° 165° (SSE) 2,343 8.6 -24.8°
Drops below altitude 10° 02:57:11 10° 105° (ESE) 2,874 9.7 -24.1°
Sets 02:59:38 0° 94° (E) 3,553 10.5 -23.8°
